SCP
0 0 0 0 0 0 0 0 0 0 0 0 0 0 0 0 0 0 0 0 0 0 0 0 0 0 0 0 0 0 0 0 0 0 0 0 0 0 0 0 0 0 0
0 0 0 0 0 0 0 0 0 0 0 0 0 0 0 0 0 0 0 0 0 0 0 0 0 0 0 0 0 0 0 0 0 0 0 0 0 0 0 0 0 0 0
0 0 0 0 0 0 0 0 0 0 0 0 0 0 0 0 0 0 0 0 0 0 0 0 0 0 0 0 0 0 0 0 0 0 0 0 0 0 0 0 0 0 0
0 0 0 0 0 0 0 0 0 0 0 0 0 0 0 0 0 0 0 0 0 0 0 0 0 0 0 0 0 0 0 0 0 0 0 0 0 0 0 0 0 0 0
0 0 0 0 0 0 0 0 0 0 0 0 0 0 0 0 0 0 0 0 0 0 0 0 0 0 0 0 0 0 0 0 0 0 0 0 0 0 0 0 0 0 0
0 0 0 0 0 0 0 0 0 0 0 0 0 0 0 0 0 0 0 0 0 0 0 0 0 0 0 0 0 0 0 0 0 0 0 0 0 0 0 0 0 0 0
0 0 0 0 0 0 0 0 0 0 0 0 0 0 0 0 0 0 0 0 0 0 0 0 0 0 0 0 0 0 0 0 0 0 0 0 0 0 0 0 0 0 0
0 0 0 0 0 0 0 0 0 0 0 0 0 0 0 0 0 0 0 0 0 0 0 0 0 0 0 0 0 0 0 0 0 0 0 0 0 0 0 0 0 0 0
0 0 0 0 0 0 0 0 0 0 0 0 0 0 0 0 0 0 0 0 0 0 0 0 0 0 0 0 0 0 0 0 0 0 0 0 0 0 0 0 0 0 0
0 0 0 0 0 0 0 0 0 0 0 0 0 0 0 0 0 0 0 0 0 0 0 0 0 0 0 0 0 0 0 0 0 0 0 0 0 0 0 0 0 0 0
0 0 0 0 0 0 0 0 0 0 0 0 0 0 0 0 0 0 0 0 0 0 0 0 0 0 0 0 0 0 0 0 0 0 0 0 0 0 0 0 0 0 0
0 0 0 0 0 0 0 0 0 0 0 0 0 0 0 0 0 0 0 0 0 0 0 0 0 0 0 0 0 0 0 0 0 0 0 0 0 0 0 0 0 0 0
0 0 0 0 0 0 0 0 0 0 0 0 0 0 0 0 0 0 0 0 0 0 0 0 0 0 0 0 0 0 0 0 0 0 0 0 0 0 0 0 0 0 0
0 0 0 0 0 0 0 0 0 0 0 0 0 0 0 0 0 0 0 0 0 0 0 0 0 0 0 0 0 0 0 0 0 0 0 0 0 0 0 0 0 0 0
0 0 0 0 0 0 0 0 0 0 0 0 0 0 0 0 0 0 0 0 0 0 0 0 0 0 0 0 0 0 0 0 0 0 0 0 0 0 0 0 0 0 0
0 0 0 0 0 0 0 0 0 0 0 0 0 0 0 0 0 0 0 0 0 0 0 0 0 0 0 0 0 0 0 0 0 0 0 0 0 0 0 0 0 0 0
0 -0 0 0 0 0 0 0 0 0 0 0 0 0 0 0 0 0 0 0 0 0 0 0 0 0 0 0 0 0 0 0 0 0 0 0 0 0 0 0 0 0 0
0 -0 -0 -0 0 0 0 0 0 0 0 0 0 0 0 0 0 0 0 0 0 0 0 0 0 0 0 0 0 0 0 0 0 0 0 0 0 0 0 0 0 0 0
0 -0 -0 -0 -0 0 0 0 0 0 0 0 0 0 0 0 0 0 0 0 0 0 0 0 0 0 0 0 0 0 0 0 0 0 0 0 0 0 0 0 0 0 0
0 -0 -0 -0 -0 0 0 0 0 0 0 0 0 0 0 0 0 0 0 0 0 0 0 0 0 0 0 0 0 0 0 0 0 0 0 0 0 0 0 0 0 0 0
0 0 -0 -0 0 0 0 0 0 0 0 0 0 0 0 0 0 0 0 0 0 0 0 0 0 0 0 0 0 0 0 0 0 0 0 0 0 0 0 0 0 0 0
0 0 0 0 0 0 0 0 0 0 0 0 0 0 0 0 0 0 0 0 0 0 0 0 0 0 0 0 0 0 0 0 0 0 0 0 0 0 0 0 0 0 0
0 0 0 0 0 0 0 0 0 0 0 0 0 0 0 0 0 0 0 0 0 0 0 0 0 0 0 0 0 0 0 0 0 0 0 0 0 0 0 0 0 0 0
0 0 0 0 0 0 0 0 0 0 0 0 0 0 0 0 0 0 0 0 0 0 0 0 0 0 0 0 0 0 0 0 0 0 0 0 0 0 0 0 0 0 0
0 0 0 0 0 0 0 0 0 0 0 0 0 0 0 0 0 0 0 0 0 0 0 0 0 0 0 0 0 0 0 0 0 0 0 0 0 0 0 0 0 0 0
0 0 0 0 0 0 0 0 0 0 0 0 0 0 0 0 0 0 0 0 0 0 0 0 0 0 0 0 0 0 0 0 0 0 0 0 0 0 0 0 0 0 0
Wind_Speed
1 1 1 1 1 1 1 2 1 1 1 2 2 2 3 2 2 2 2 5 6 6 7 7 7 8 8 8 8 8 9 8 9 9 9 9 9 9 9 9 9 9 8
0 0 1 1 1 1 1 1 2 1 1 1 2 3 3 2 2 3 3 3 5 5 6 7 7 8 8 9 9 8 8 9 8 9 9 9 9 8 8 8 8 8 8
0 0 1 1 1 2 1 1 2 1 1 1 2 2 2 2 2 3 3 2 2 4 5 6 6 7 8 9 9 9 9 8 8 8 9 9 9 9 9 9 8 8 8
1 1 1 1 2 1 1 1 1 1 1 1 1 2 2 2 2 2 2 2 1 1 2 4 5 5 7 8 9 9 9 9 9 9 9 9 10 10 9 9 9 9 8
1 0 1 2 2 1 1 1 0 0 1 1 2 1 1 1 1 1 1 1 1 1 1 2 3 4 5 7 8 9 10 10 10 10 10 10 10 9 9 9 9 8 8
2 1 1 2 1 1 1 1 1 0 1 1 1 1 1 1 1 1 1 1 1 1 1 1 1 2 4 6 7 8 9 11 11 10 10 10 10 10 10 10 9 9 9
2 1 1 2 1 1 1 1 0 0 1 0 1 1 2 1 1 1 1 0 0 1 1 1 1 1 1 4 6 7 9 10 11 11 11 10 10 10 10 10 10 10 10
2 2 1 2 1 1 1 1 0 0 1 0 1 1 1 3 2 1 0 0 1 1 1 1 1 2 2 1 3 6 7 8 9 10 11 11 10 11 11 11 11 10 10
3 2 2 2 2 1 1 1 1 1 1 1 1 2 2 2 1 2 1 1 1 0 1 1 1 2 2 2 2 4 5 6 7 9 10 10 10 11 12 12 12 11 11
3 2 2 2 1 1 1 2 1 1 1 1 0 0 1 2 2 0 2 2 1 1 1 0 0 1 1 1 2 3 4 5 6 7 9 10 11 11 12 12 12 12 12
3 3 2 2 1 1 2 1 1 1 1 1 1 1 1 1 1 2 0 2 2 1 1 1 0 0 1 1 1 2 4 4 4 5 6 8 9 11 11 12 12 12 12
3 3 2 2 1 1 1 1 1 1 2 2 1 1 1 1 1 2 1 0 1 1 1 1 1 1 0 1 1 2 3 4 4 4 5 5 6 8 9 11 12 12 12
2 3 2 2 2 2 1 1 1 1 2 2 2 1 1 1 1 2 2 1 0 1 1 1 1 1 1 1 0 1 2 3 3 3 4 4 5 6 7 9 10 11 12
3 3 3 2 2 2 1 0 0 1 1 1 2 2 1 1 1 2 2 2 1 1 1 1 1 1 1 1 1 1 0 2 2 3 3 3 4 4 5 6 7 8 9
3 3 2 2 2 2 1 0 0 1 0 1 1 2 1 1 1 1 1 2 3 2 1 1 1 1 1 1 1 1 0 0 1 1 2 3 3 3 3 4 4 5 5
2 2 2 2 2 2 1 0 0 0 1 0 1 1 1 1 1 1 1 1 2 3 2 1 1 1 1 1 1 1 0 1 1 1 1 2 2 2 3 3 3 3 4
2 2 2 1 1 1 1 0 1 1 1 0 1 1 1 1 1 1 1 1 1 2 2 0 1 0 1 1 1 1 1 1 1 1 1 1 2 3 3 3 3 4 4
2 2 1 1 1 1 1 0 1 1 1 1 1 1 1 1 1 1 1 2 1 2 2 2 0 0 1 1 1 1 2 2 1 1 1 1 1 2 2 3 3 4 4
2 2 1 2 2 1 1 1 1 1 1 2 1 2 1 2 1 1 2 1 1 1 2 2 1 0 0 1 1 1 2 2 2 2 2 1 1 0 1 1 2 3 4
2 2 2 2 2 2 1 1 1 1 1 1 1 1 2 2 3 2 2 2 2 2 2 2 1 1 1 1 1 1 2 2 2 2 3 2 2 2 2 1 1 3 3
3 3 2 2 2 1 2 2 1 1 1 0 0 0 1 3 4 3 2 2 3 2 2 2 1 1 0 1 0 0 0 1 2 2 2 2 2 2 2 2 2 1 2
3 3 3 2 2 2 3 4 3 2 1 1 1 1 1 1 1 2 3 4 5 4 3 2 2 2 1 1 1 1 1 1 1 1 1 2 2 1 2 1 2 2 1
4 4 4 3 3 4 5 4 5 3 2 1 1 1 0 0 1 1 1 2 2 3 5 4 4 3 3 3 3 2 1 1 1 1 1 1 2 1 2 3 4 3 3
5 5 5 4 4 5 6 5 5 3 2 2 2 2 1 1 1 2 2 2 1 1 1 2 3 3 2 3 3 3 2 1 0 1 1 0 1 1 2 3 6 6 6
6 5 4 5 5 6 7 7 6 3 2 2 2 2 2 2 2 4 4 3 1 1 2 4 4 3 3 3 4 3 2 2 1 1 1 1 1 1 2 2 4 7 7
7 6 5 5 6 6 7 8 8 3 3 2 1 1 3 3 3 4 4 3 2 1 2 3 3 4 4 4 4 3 3 3 1 0 1 1 1 1 1 1 2 3 4
Wind_Direction
19 351 337 334 328 329 326 316 314 309 294 284 268 253 252 246 249 254 266 274 267 261 249 230 218 207 197 196 196 188 178 172 167 161 158 153 147 141 142 142 141 141 144
104 7 344 333 323 313 304 293 294 293 279 261 266 258 252 244 244 253 252 269 275 267 252 238 226 210 201 199 199 193 186 182 178 172 168 164 159 155 156 155 154 155 157
131 6 331 319 308 305 309 310 314 313 288 272 264 265 255 245 240 248 249 244 265 268 248 239 235 217 208 204 202 197 191 187 186 182 178 174 170 168 168 167 167 166 166
342 356 332 313 311 317 322 308 313 319 305 289 274 277 268 249 246 244 238 237 238 262 257 244 231 220 212 212 210 202 195 190 191 191 187 180 177 174 172 173 175 177 173
332 315 298 299 312 322 319 304 326 243 270 284 268 268 282 264 260 255 229 230 234 232 229 254 234 215 215 219 218 209 201 196 195 194 191 183 179 179 178 179 180 180 179
324 316 294 305 316 325 323 313 295 306 249 265 286 318 299 283 267 256 230 200 208 237 221 197 198 215 218 223 220 214 208 202 198 197 196 191 187 186 187 186 185 188 187
324 314 309 314 321 301 282 276 255 316 316 295 49 357 337 327 338 297 256 154 223 246 206 187 178 183 212 220 215 213 213 208 204 202 201 198 194 191 192 192 191 194 194
319 309 297 292 291 288 307 308 250 146 320 57 123 98 358 350 348 356 353 76 291 260 237 220 185 192 193 188 216 214 212 210 208 204 204 203 199 196 197 198 198 201 201
314 307 295 281 280 259 267 273 235 171 209 294 120 143 151 205 310 345 1 3 349 328 289 252 193 201 193 182 202 216 208 204 208 209 207 207 206 204 204 204 205 207 206
314 311 305 289 277 261 257 261 222 194 167 205 293 72 159 167 148 11 345 350 2 343 318 312 198 195 185 172 191 196 200 201 208 213 213 212 212 211 211 210 211 212 211
315 313 313 305 290 270 259 255 229 195 183 176 178 167 108 70 105 143 132 342 354 339 348 351 33 114 183 170 180 189 191 199 207 215 221 220 217 216 216 216 216 218 218
310 315 318 313 295 277 266 254 228 199 197 183 178 167 159 154 171 150 161 201 331 324 344 15 29 29 86 144 187 175 174 188 203 214 223 227 224 222 224 223 222 223 225
299 305 315 307 298 285 276 248 211 205 196 188 190 195 190 189 167 153 147 157 136 327 346 10 4 15 56 78 47 105 178 186 200 213 220 225 227 228 233 233 228 227 229
267 281 292 296 300 302 295 234 225 237 193 195 201 187 185 202 171 164 160 146 124 21 9 330 334 354 13 53 34 53 339 211 199 203 213 220 225 230 238 240 237 232 231
265 275 290 303 309 314 311 176 204 246 182 188 190 184 179 198 182 182 165 157 152 153 221 281 312 320 354 44 37 61 27 267 168 182 210 225 224 224 226 229 230 232 235
269 284 299 309 318 327 325 161 171 214 162 196 186 164 167 183 180 168 166 166 160 155 173 239 254 290 330 29 45 43 12 27 36 23 258 238 230 224 219 219 217 219 226
263 267 275 294 303 314 316 245 219 192 158 185 176 167 186 177 166 168 160 151 152 148 154 231 262 295 18 29 10 14 39 51 16 325 286 247 231 226 220 216 217 221 223
257 255 263 280 283 287 287 234 236 195 180 190 194 167 191 166 163 170 162 159 161 162 156 171 249 7 24 7 3 18 27 44 23 337 316 279 246 226 218 221 222 223 223
249 259 251 256 263 271 265 243 208 197 199 207 201 186 195 166 175 172 160 158 163 151 146 146 159 56 37 34 36 23 30 21 13 17 16 11 332 285 227 234 237 232 227
226 239 244 250 252 255 248 234 187 175 177 200 197 190 194 193 194 183 173 174 156 134 128 130 128 90 74 42 64 46 24 11 358 7 17 22 29 27 16 344 276 244 233
223 224 229 254 257 241 226 204 191 170 160 149 356 223 214 205 199 189 179 176 157 145 139 136 137 121 125 128 134 55 42 350 351 9 7 6 12 18 6 353 341 302 253
224 218 220 230 243 240 226 198 175 170 170 175 221 277 286 281 202 185 182 176 174 170 166 160 164 165 186 184 162 149 141 62 347 351 16 348 12 6 347 349 349 349 339
212 217 224 219 231 244 234 210 186 165 174 191 210 234 286 22 133 121 117 117 156 181 180 166 167 187 187 191 169 162 167 160 212 303 34 347 357 3 345 2 9 17 20
206 213 220 218 223 240 231 214 192 170 175 197 207 207 208 250 191 152 123 96 74 58 170 166 173 190 195 182 174 167 160 140 36 357 50 26 344 350 350 3 23 40 42
209 210 211 209 215 238 233 215 189 163 181 207 215 210 202 214 216 162 136 133 105 47 75 104 117 116 120 136 145 131 131 125 76 5 27 73 343 345 353 5 24 36 38
212 208 212 210 211 224 230 216 192 170 183 201 210 228 223 206 204 171 155 152 159 187 109 92 78 66 67 70 91 125 147 144 141 313 5 45 17 19 2 356 17 19 29